Location: La Gautrais
(48.1977°N, 1.2646°W)
Time: 22:29:22
(UTC+00:00)

Daily predictions for brighter satellites

Satellite Brightness Start Highest point End
(mag) Time Altitude Azimuth Time Altitude Azimuth Time Altitude Azimuth
Meteor 2-10 4.5 17:57:31 10° SSE 18:02:50 46° E 18:08:01 10° NNE
ARGOS 4.0 17:58:19 10° S 18:03:35 58° W 18:08:54 10° NNW
ATLAS 2AS CENTAUR R/B 4.5 17:58:52 10° WNW 18:05:02 26° NNW 18:10:57 10° NE
YAOGAN 1 3.3 18:03:01 10° SE 18:06:51 32° ENE 18:10:44 10° N
Okean O Rocket 2.4 18:06:56 10° SE 18:10:45 30° ENE 18:14:36 10° N
Cosmos 2084 3.8 18:07:45 10° WSW 18:11:30 56° NW 18:15:17 10° NE
SKYMED 2 3.5 18:09:50 10° NNE 18:14:12 69° ESE 18:18:31 10° S
Nadezhda 4 Rocket 4.4 18:09:31 10° SSE 18:15:21 41° E 18:21:10 10° NNE
Cosmos 2227 Rocket 4.5 18:11:20 10° NW 18:16:07 29° WSW 18:20:54 10° SSW
Cosmos 2285 Rocket 4.2 18:14:54 10° NNW 18:21:08 55° ENE 18:27:23 10° SE
PSLV R/B 3.5 18:19:15 10° SSE 18:22:54 77° ENE 18:26:35 10° N
Cosmos 1726 2.2 18:19:54 10° S 18:23:26 50° E 18:27:00 10° NNE
Cosmos 2322 Rocket 3.4 18:19:32 10° SE 18:23:35 20° E 18:27:39 10° NE
USA 186 3.9 18:22:41 11° E 18:23:54 13° ENE 18:25:29 10° NE
Cosmos 841 Rocket 3.9 18:22:42 10° NNW 18:27:52 69° WSW 18:32:57 10° S
Cosmos 1470 4.0 18:25:30 10° SE 18:28:17 19° E 18:31:04 10° NE
CZ-4B R/B 3.2 18:23:51 10° SSE 18:29:11 65° ENE 18:34:40 10° N
Cosmos 1980 Rocket 2.4 18:23:34 10° SSW 18:29:12 80° WNW 18:34:52 10° NNE
Cosmos 1378 Rocket 3.5 18:24:55 10° N 18:29:19 74° E 18:33:39 10° SSE
Cosmos 1975 Rocket 4.4 18:26:53 10° NNE 18:30:15 21° ENE 18:33:08 12° ESE
Timation 2 Rocket 4.2 18:24:24 10° NNW 18:30:53 80° WSW 18:37:02 10° SSE
ARGOS Delta rocket 4.0 18:26:15 10° NNE 18:31:27 58° E 18:36:20 10° S
DMSP B5D2-2 4.2 18:26:56 10° NNE 18:32:16 85° WNW 18:37:32 10° SSW
Cosmos 2292 Rocket 4.2 18:33:41 10° SSE 18:38:16 35° E 18:41:54 10° NNE
Meteor 2-14 Rocket 4.4 18:34:05 10° S 18:40:07 76° E 18:46:11 10° NNE
Cosmos 1733 Rocket 3.7 18:38:00 10° SSW 18:42:23 62° WNW 18:46:50 10° N
Cosmos 1850 Rocket 4.4 18:37:31 10° SSW 18:42:43 70° WNW 18:48:01 10° NNE
USA 215 3.4 18:38:31 10° NE 18:45:04 78° NNW 18:51:36 10° WSW
Cosmos 2369 4.4 18:41:20 10° SW 18:46:58 58° WNW 18:52:37 10° NNE
Cosmos 2221 Rocket 4.4 18:42:52 10° NNW 18:47:19 55° W 18:51:45 10° S
COBE Rocket 3.8 18:42:31 10° SSE 18:47:21 89° WSW 18:52:07 10° NNW
Cosmos 1844 Rocket 3.3 18:43:56 10° NNW 18:49:14 38° NE 18:52:59 18° ESE
Cosmos 2278 3.7 18:46:55 10° SSW 18:52:37 88° ESE 18:58:20 10° NNE
SL-16 R/B 2.4 18:48:07 10° S 18:53:29 46° ESE 18:58:53 10° NE
Cosmos 1570 Rocket 3.9 18:49:30 10° NNW 18:54:47 74° ENE 19:00:01 10° SSE
Landsat 5 4.5 18:52:02 10° NE 18:55:54 28° E 18:59:42 10° SSE
Cosmos 1092 Rocket 4.2 18:50:49 10° SSE 18:56:48 47° E 19:02:45 10° NNE
Resurs 01 Rocket 3.4 19:01:19 15° ENE 19:01:19 15° ENE 19:03:44 10° NNE
DMSP B5D1-3 4.4 18:56:19 10° NNE 19:01:25 66° ESE 19:06:30 10° S
COSMO-SKYMED 1 4.0 18:58:05 10° N 19:02:09 40° WNW 19:06:13 10° SW
Meteor 2-21 Rocket 4.3 18:56:48 10° S 19:02:49 79° E 19:08:54 10° NNE
SJ-6B 3.4 19:02:07 27° ESE 19:03:13 34° ENE 19:06:41 10° N
Cosmos 2278 Rocket 4.2 19:01:12 10° N 19:03:31 12° NNE 19:05:41 10° NE
HJ-1C 3.6 19:01:21 10° S 19:04:27 63° W 19:07:33 10° NNW
Cosmos 1437 Rocket 2.5 19:02:02 10° S 19:05:45 70° E 19:09:28 10° NNE
H-2A R/B 4.1 19:07:12 16° NE 19:07:12 16° NE 19:09:04 10° NNE
Cosmos 2263 Rocket 3.4 19:03:04 10° NW 19:08:24 43° WSW 19:13:43 10° S
Meteor 1-24 Rocket 3.5 19:05:04 10° N 19:10:22 65° ENE 19:15:43 10° SSE
Resurs 1-3 4.3 19:11:26 30° E 19:12:23 33° ENE 19:16:20 10° N
STPSAT 2 (USA 217) 4.5 19:10:21 10° SSW 19:14:54 83° ESE 19:19:28 10° NNE
SL-4 R/B 3.1 19:10:48 10° WNW 19:15:03 44° SW 19:17:52 20° SSE
Meteor 2-16 Rocket 4.4 19:10:39 10° S 19:16:47 85° E 19:22:59 10° N
Feng Yun 1-1 Rocket 4.2 19:11:40 10° SSE 19:17:09 84° WSW 19:22:35 10° NNW
Cosmos 2084 Rocket 3.1 19:14:36 10° NW 19:18:28 81° NE 19:19:51 39° SE
USA 267 4.0 19:14:47 10° SSE 19:21:04 48° SW 19:27:23 10° WNW
ISS -0.9 19:20:22 10° WSW 19:21:55 13° SW 19:23:29 10° SSW
Okean-O 2.8 19:20:30 34° ESE 19:22:01 50° ENE 19:26:19 10° N
Cosmos 1486 Rocket 4.4 19:18:07 10° S 19:23:02 39° ESE 19:27:59 10° NE
CZ-4 R/B 2.0 19:19:11 10° S 19:23:18 60° W 19:27:27 10° NNW
Cosmos 2208 Rocket 4.1 19:18:02 10° NNW 19:23:27 83° WSW 19:28:16 13° SSE
Cosmos 1844 3.8 19:18:25 10° NNW 19:23:53 55° ENE 19:26:12 33° ESE
OBJECT-B 1.5 19:24:55 32° N 19:24:55 32° N 19:26:28 10° N
IGS 5A 3.4 19:24:38 39° SE 19:25:53 58° ENE 19:29:57 10° N
DNEPR-1 R/B 4.1 19:22:26 10° SSW 19:26:55 49° ESE 19:30:36 19° NE
Meteor 1-22 Rocket 4.1 19:22:42 10° S 19:28:07 82° E 19:33:49 10° NNE
Helios 1B 4.4 19:25:32 10° NNE 19:29:53 82° ESE 19:34:13 10° SSW
Cosmos 1300 Rocket 3.7 19:30:15 46° ESE 19:30:36 48° E 19:34:49 10° NNE
Cosmos 1908 Rocket 4.3 19:26:34 10° SSW 19:30:48 54° WNW 19:35:05 10° N
CSL-04 Debris 4.0 19:28:02 18° SSE 19:32:10 78° ENE 19:37:35 10° NNW
Cosmos 1428 Rocket 4.4 19:26:09 10° S 19:32:19 83° E 19:38:38 10° N
Cosmos 1627 Rocket 4.3 19:29:42 10° S 19:35:48 80° E 19:41:58 10° N
Cosmos 2195 Rocket 4.5 19:29:50 10° S 19:36:05 89° WNW 19:42:26 10° N
Cosmos 2360 Rocket 2.3 19:32:36 10° S 19:38:00 49° ESE 19:43:26 10° NE
Cosmos 1782 Rocket 3.5 19:34:36 10° SSW 19:38:57 82° W 19:43:21 10° N
USA 81 3.9 19:33:46 10° N 19:39:05 85° E 19:43:22 16° S
Cosmos 1025 Rocket 3.0 19:38:47 10° N 19:43:07 84° W 19:44:51 36° S
Okean O Rocket 3.4 19:43:08 10° SSW 19:47:02 32° W 19:50:59 10° NNW
Cosmos 968 Rocket 4.1 19:44:02 10° SW 19:49:11 56° WNW 19:54:22 10° NNE
Lacrosse 4 Rocket 1.2 19:46:12 10° SSW 19:50:17 84° SE 19:50:17 84° SE
Cosmos 2026 Rocket 4.0 19:46:19 10° SSW 19:52:23 80° W 19:58:29 10° N
USA 186 2.7 19:55:51 49° W 19:55:51 49° W 19:59:05 10° NNW
CSL-04 Rocket 3.8 19:55:05 27° S 19:58:07 74° WSW 20:03:34 10° NNW
ATLAS 2AS CENTAUR R/B 4.2 19:52:28 10° NW 19:58:26 26° NNE 20:01:35 19° NE
BREEZE-M R/B 4.4 19:56:57 10° WSW 19:58:03 29° WSW 19:58:03 29° WSW
MOS 1 4.3 20:01:33 54° ENE 20:01:48 54° ENE 20:07:20 10° N
Cosmos 1553 Rocket 3.9 19:57:28 10° N 20:03:53 85° E 20:06:34 38° SSE
Cosmos 1470 4.3 20:00:26 10° SW 20:03:58 35° WNW 20:07:32 10° N
Landsat 7 3.7 20:04:06 71° S 20:04:35 86° WSW 20:09:21 10° NNW
deb Chang Zheng 4 4.1 20:05:56 47° N 20:05:56 47° N 20:09:00 10° N
Cosmos 2322 Rocket 2.4 20:01:20 10° SW 20:07:02 72° WNW 20:12:46 10° NNE
SPOT 1/Viking Rocket 3.7 20:07:53 54° NE 20:07:53 54° NE 20:12:25 10° N
Cosmos 2237 4.4 20:02:11 10° SW 20:07:52 70° WNW 20:13:34 10° NNE
Cosmos 1975 Rocket 4.1 20:04:08 10° NNW 20:08:20 44° W 20:10:19 26° SSW
NOSS 3-4 (A) 4.1 20:04:05 10° NW 20:10:39 52° NE 20:12:04 46° ENE
NOSS 3-4 (C) 4.1 20:04:10 10° NW 20:10:45 51° NE 20:12:10 46° ENE
Ariane Rocket 4.0 20:16:26 35° NNE 20:16:26 35° NNE 20:19:49 10° N
NOSS 3-3 (A) 3.7 20:15:05 10° SSW 20:20:03 68° S 20:20:03 68° S
NOSS 3-3 (C) 3.8 20:15:11 10° SSW 20:19:58 64° S 20:19:58 64° S
Aureole 1 Rocket 3.9 20:17:41 10° SSW 20:25:06 78° ESE 20:30:55 10° NNE
USA 281 4.1 20:27:40 33° NE 20:27:40 33° NE 20:33:13 10° NNW
USA 215 4.1 20:24:15 25° NE 20:27:40 45° N 20:33:47 10° W
Cosmos 1844 Rocket 3.7 20:27:52 10° NW 20:33:11 42° WSW 20:34:40 35° SW
Resurs 01 Rocket 2.9 20:38:53 36° NNW 20:38:53 36° NNW 20:41:36 10° NNW
SL-16 R/B 3.7 20:32:35 10° WSW 20:37:45 35° NW 20:42:56 10° NNE
Cosmos 2315 Rocket 4.4 20:32:49 10° N 20:37:56 52° NNE 20:37:56 52° NNE
Terra 4.1 20:42:43 15° NNE 20:42:43 15° NNE 20:43:40 10° N
Cosmos 1943 Rocket 4.2 20:36:24 10° N 20:38:59 16° NNE 20:38:59 16° NNE
H-2A R/B 4.4 20:43:40 24° NW 20:43:40 24° NW 20:45:23 10° NNW
Cosmos 2278 Rocket 3.3 20:43:47 10° NNW 20:47:32 35° NNE 20:47:32 35° NNE
Cosmos 2266 Rocket 4.5 21:11:31 58° NNW 21:11:31 58° NNW 21:16:47 10° N
Cosmos 2333 Rocket 4.4 21:18:31 16° NNE 21:18:31 16° NNE 21:19:33 10° NNE
Cosmos 2360 Rocket 3.7 21:17:08 10° WSW 21:22:12 33° NW 21:27:18 10° NNE
ATLAS 2AS CENTAUR R/B 3.7 21:44:01 10° NW 21:49:00 41° N 21:49:00 41° N
USA 215 4.4 22:11:36 37° NNW 22:11:36 37° NNW 22:16:04 10° WNW
USA 281 4.5 22:14:33 35° NW 22:14:33 35° NW 22:18:12 10° NNW
